THOR AGENA D R/B, 727

Orbit data source: Space-Track

THOR AGENA D R/B, 727 is space debris in LEO originally from a launch on Sat, 11 Jan 1964 UTC via a THOR SLV-2A AGENA D launch vehicle from the Air Force Western Test Range (AFWTR). Debris objects in space refer to the collection of defunct objects orbiting the Earth. Examples of debris include non-operational satellites, rocket bodies, and fragments generated from explosions, collisions, or faulty payload assembly.

Loading next visibility...
Identifier
727, 1964-001A
Orbit
LEO
Country
Flag of USUS
Related business
Manufacturer
HRB-Singer
Mission
Spacecraft
Bus & Motor
AFTRACK, Unknown motor
Mass
~700 kg wet, 5 kg dry
Launch date (UTC)
1964-01-11 (62 years ago)
Launch vehicle
THOR SLV-2A AGENA D
Launch site
Air Force Western Test Range (AFWTR)
Object type
Payload
Rocket body
Debris
Shape & HBR
Cyl + 1 Nozzle, 3.5 m
Radar Cross Section
9.225 m², Large (>1 m²)

Expand to show TLE details & history
Last TLE update: 22 hours ago

TLE from 22 hours ago
0 THOR AGENA D R/B
1 00727U 64001A   25242.09556188  .00000070  00000-0  90556-4 0  9990
2 00727  69.9055 195.2970 0011206  54.1130 306.1014 13.95740082136531
Epoch: 2025-08-30T02:17Z
TLE epoch observation values (Epoch: 2025-08-30T02:17:36.546Z)
Latitude
0.00003°
Longitude
-177.64004°
Altitude
906.084 km
Speed
7.402 km/s
True Right ascension
13h 01m 11s
True Declination
0° 00' 00"
Sunlit
Object was in daylight at epoch
Visualization orbit readout
Latitude
Unknown
Longitude
Unknown
Altitude
Unknown
Speed
Unknown
Apparent Right ascension
Unknown
Apparent Declination
Unknown
Sunlit
N/A
Visualization observer readout
Local Sidereal Time
16:02:11
Azimuth
Unknown
Elevation
Unknown
Doppler factor
Unknown
Orbital elements
Apogee altitude
914.8 km
Perigee altitude
898.474 km
Semi-major axis
7,284.774 km
Eccentricity
0.00112
Inclination
69.9055°
RAAN
195.297°
Arg. of periapsis
54.113°
True anomaly
305.99756°
Mean anomaly
306.1014°
Eccentric anomaly
306.04949°
Mean motion
3.49075 °/min
Orbital period
103.13 mins
BSTAR
0.000090556
Loading maneuver chart data...
Computing Atmospheric mass density...
Loading historical data...
Loading historical data...
Loading historical data...
Loading historical data...
Loading historical data...
Loading historical data...
Loading historical data...
Other satellites on launch #1 in the year 1964 (1964-01-11 UTC)

Documentation

Showing up to 5 results
|